Location: Marcé
(47.5801°N, 0.3280°W)
Time: 11:32:14
(UTC+01:00)

Envisat - Visible Passes

Search period start: 29 November 2022 00:00
Search period end: 09 December 2022 00:00
Orbit: 763 x 765 km, 98.2° (Epoch: 28 November)

Date Brightness Start Highest point End Pass type
(mag) Time Alt. Az. Time Alt. Az. Time Alt. Az.
29 Nov 5.3 04:31:49 10° NNE 04:33:31 19° NE 04:33:31 19° NE visible
29 Nov 3.9 06:10:40 10° N 06:13:41 30° NNW 06:13:41 30° NNW visible
30 Nov 4.2 05:33:26 10° NNE 05:36:04 31° N 05:36:04 31° N visible
30 Nov 4.7 07:14:18 10° NNW 07:16:14 13° NW 07:16:14 13° NW visible
01 Dec 4.9 04:56:32 10° NNE 04:58:26 22° NNE 04:58:26 22° NNE visible
01 Dec 4.3 06:36:05 10° N 06:38:37 22° NW 06:38:37 22° NW visible
01 Dec 6.0 17:56:38 10° WSW 17:58:54 13° W 18:01:11 10° WNW visible
02 Dec 5.7 04:20:08 10° NE 04:20:50 13° NE 04:20:50 13° NE visible
02 Dec 4.3 05:58:36 10° N 06:01:00 27° N 06:01:00 27° N visible
03 Dec 4.7 05:21:28 10° NNE 05:23:24 24° NNE 05:23:24 24° NNE visible
03 Dec 4.7 07:01:49 10° NNW 07:03:34 15° NW 07:03:34 15° NW visible
04 Dec 5.4 04:44:42 10° NNE 04:45:48 16° NE 04:45:48 16° NE visible
04 Dec 4.5 06:23:56 10° N 06:25:58 21° NNW 06:25:58 21° NNW visible
04 Dec 5.8 17:43:38 10° SW 17:46:47 16° W 17:49:58 10° NW visible
05 Dec 4.6 05:46:34 10° N 05:48:23 22° N 05:48:23 22° N visible
06 Dec 5.1 05:09:32 10° NNE 05:10:48 18° NNE 05:10:48 18° NNE visible
06 Dec 4.7 06:49:30 10° NNW 06:50:59 16° NNW 06:50:59 16° NNW visible
07 Dec 5.7 04:32:54 10° NNE 04:33:13 11° NE 04:33:13 11° NE visible
07 Dec 4.7 06:11:49 10° N 06:13:24 19° N 06:13:24 19° N visible
08 Dec 5.0 05:34:33 10° N 05:35:50 18° N 05:35:50 18° N visible
08 Dec 4.9 07:15:32 10° NNW 07:16:00 11° NNW 07:16:00 11° NNW visible
